Orbital Elements at Epoch 2459000.5 (2020-May-31.0) TDB
Reference: JPL 16 (heliocentric ecliptic J2000)
Element | Value | Uncertainty (1-sigma) | Units |
e | .1765936785704596 | 3.7838e-08 | |
a | 2.681471710335934 | 1.1642e-08 | au |
q | 2.20794075702509 | 1.0438e-07 | au |
i | 3.266805839889078 | 4.339e-06 | deg |
node | 50.06085565815466 | 7.3026e-05 | deg |
peri | 19.16534921838862 | 7.427e-05 | deg |
M | 304.5367674593812 | 1.1971e-05 | deg |
tp | 2459247.593279276769 (2021-Feb-02.09327928) | 5.3198e-05 | TDB |
period | 1603.8297168217 4.39 | 1.0444e-05 2.859e-08 | d yr |
n | .2244627320619859 | 1.4617e-09 | deg/d |
Q | 3.155002663646778 | 1.3697e-08 | au |
|
| | Orbit Determination Parameters
Additional Information
|